Home > Weather > Strausberg > Past weeks

Flag for Germany Past Weather in Strausberg, Brandenburg, Germany — Yesterday and Last 2 Weeks

Now
75 °F

Passing clouds.


Feels Like: 78 °F
Forecast: 59 / 79 °F
Wind: 13 mph from Southwest

Location: Berlin-Schoenefeld

Current Time: Jun 30, 2016 at 4:14:36 PM

Latest Report: Jun 30, 2016 at 3:20 PM


Visibility: N/A

Pressure: 29.92 "Hg

Humidity: 47%

Dew Point: 54 °F

Location of StrausbergLocation

Past Weather in Strausberg — Graph

°F

Strausberg Temperature Yesterday

Maximum temperature yesterday: 77 °F (at 2:20 PM)
Minimum temperature yesterday: 55 °F (at 1:50 AM)
Average temperature yesterday: 66 °F

High & Low Weather Summary for the Past Weeks

 TemperatureHumidityPressure
High93 °F (Jun 24, 2:50 PM)100% (Jun 15, 7:50 PM)30.24 "Hg (Jun 15, 7:50 PM)
Low48 °F (Jun 20, 4:20 AM)26% (Jun 24, 5:50 PM)29.47 "Hg (Jun 17, 8:50 AM)
Average67 °F68%29.96 "Hg
* Reported Jun 15 2:20 PM — Jun 30 2:50 PM, Strausberg, Weather by CustomWeather, © 2016

Note: Actual official high and low records may vary slightly from our data, if they occured in-between our weather recording intervals... More about our weather records

Advertising

Strausberg Weather History for the Previous 24 Hours

Scroll right to see more
 ConditionsComfort  
Time TempWeatherWind HumidityBarometerVisibility
2:50 PM
Thu, Jun 30
75 °FPassing clouds.13 mph44%29.92 "HgN/A
2:20 PM75 °FPassing clouds.14 mph44%29.92 "HgN/A
1:50 PM75 °FSunny.13 mph47%29.92 "Hg10 mi
1:20 PM75 °FPassing clouds.14 mph41%29.92 "HgN/A
12:50 PM75 °FSunny.14 mph39%29.92 "Hg10 mi
12:20 PM75 °FPassing clouds.13 mph36%29.92 "HgN/A
11:50 AM75 °FPassing clouds.15 mph41%29.92 "HgN/A
11:20 AM73 °FPassing clouds.12 mph44%29.92 "HgN/A
10:50 AM73 °FSunny.9 mph44%29.92 "Hg10 mi
10:20 AM73 °FPassing clouds.9 mph47%29.92 "HgN/A
9:50 AM73 °FPassing clouds.7 mph50%29.92 "HgN/A
9:20 AM72 °FPassing clouds.9 mph53%29.89 "HgN/A
8:50 AM70 °FPassing clouds.8 mph46%29.92 "HgN/A
8:20 AM68 °FBroken clouds.6 mph56%29.92 "HgN/A
7:50 AM66 °FBroken clouds.5 mph60%29.92 "HgN/A
7:20 AM63 °FSunny.1 mph73%29.92 "Hg10 mi
6:50 AM61 °FSunny.1 mph83%29.92 "Hg10 mi
6:20 AM57 °FSunny.3 mph88%29.92 "Hg10 mi
5:50 AM55 °FSunny.2 mph88%29.92 "Hg10 mi
5:20 AM54 °FClear.2 mph94%29.92 "Hg10 mi
4:50 AM54 °FClear.2 mph88%29.92 "Hg10 mi
4:20 AM54 °FClear.2 mph94%29.92 "Hg10 mi
3:50 AM54 °FClear.No wind94%29.92 "Hg10 mi
3:20 AM54 °FClear.No wind94%29.92 "Hg10 mi
2:50 AM55 °FClear.No wind82%29.92 "Hg10 mi
2:20 AM57 °FClear.No wind82%29.92 "Hg10 mi
1:50 AM57 °FClear.2 mph77%29.92 "Hg10 mi
1:20 AM57 °FClear.2 mph77%29.92 "Hg10 mi
12:50 AM59 °FClear.No wind72%29.92 "Hg10 mi
12:20 AM59 °FClear.2 mph72%29.92 "Hg10 mi
11:50 PM
Wed, Jun 29
61 °FClear.2 mph63%29.92 "Hg10 mi
11:20 PM63 °FClear.1 mph59%29.92 "Hg10 mi
10:50 PM64 °FClear.6 mph52%29.92 "Hg10 mi
10:20 PM66 °FSunny.6 mph46%29.92 "Hg10 mi
9:50 PM66 °FSunny.6 mph49%29.92 "Hg10 mi
9:20 PM68 °FSunny.7 mph46%29.89 "Hg10 mi
8:50 PM70 °FSunny.9 mph43%29.89 "Hg10 mi
8:20 PM70 °FSunny.12 mph43%29.89 "Hg10 mi
7:50 PM72 °FSunny.10 mph44%29.89 "Hg10 mi
7:20 PM73 °FSunny.14 mph41%29.86 "Hg10 mi
6:50 PM75 °FSunny.15 mph36%29.86 "Hg10 mi
6:20 PM75 °FSunny.15 mph36%29.86 "Hg10 mi
5:50 PM77 °FPassing clouds.15 mph34%29.86 "HgN/A
5:20 PM77 °FPassing clouds.16 mph44%29.86 "HgN/A
4:50 PM75 °FPassing clouds.20 mph44%29.86 "HgN/A
4:20 PM73 °FSunny.15 mph57%29.86 "Hg10 mi
Weather by CustomWeather, © 2016

See weather overviewHow to use our weather pages